Location: ??????
(30.0081°N, 31.2109°E)
Time: 08:01:07
(UTC+00:00)

Helios 1A Rocket - Pass Details

Date: 03 March 2021
Orbit: 563 x 585 km, 98.3° (Epoch: 15 April)

Event Time Altitude Azimuth Distance (km) Brightness Sun altitude
Rises 17:32:38 0° 181° (S) 2,771 6.4 -21.8°
Reaches altitude 10° 17:34:51 10° 188° (S) 1,873 5.5 -22.3°
Maximum altitude 17:38:42 43° 260° (W) 811 4.1 -23.1°
Drops below altitude 10° 17:42:34 10° 332° (NNW) 1,871 5.9 -23.9°
Sets 17:44:48 0° 339° (NNW) 2,768 6.8 -24.4°
